Weather History for Moron de la Frontera, Spain

Change the Weather History Date:

Thursday, October 18, 2012

  Actual Average Record
Temperature  
Mean Temperature 68 °F -  
Max Temperature 80 °F 69 °F 86 °F (1997)
Min Temperature 55 °F 51 °F 48 °F (2010)
Cooling Degree Days 2    
Growing Degree Days 18 (Base 50)    
Moisture  
Dew Point 57 °F    
Average Humidity 78    
Maximum Humidity 94    
Minimum Humidity 50    
Precipitation  
Precipitation 0.00 in - - ()
Sea Level Pressure  
Sea Level Pressure 29.65 in    
Wind  
Wind Speed 8 mph ()    
Max Wind Speed 26 mph    
Max Gust Speed 37 mph    
Visibility 5.7 miles    
Events Rain    
Averages and records for this station are not official NWS values.
T = Trace of Precipitation, MM = Missing Value Source: Averaged Metar Reports

Daily Weather History Graph

Daily Weather History Graph

Search for Another Location

Airport:

Trip Planner

Search our weather history database for the weather conditions in past years. The results will help you decide how hot, cold, wet, or windy it might be!

Date:

Astronomy

Oct. 18, 2012 Rise Set
Actual Time 8:33 AM CEST 7:41 PM CEST
Civil Twilight 8:06 AM CEST 8:07 PM CEST
Nautical Twilight 7:36 AM CEST 8:37 PM CEST
Astronomical Twilight 7:06 AM CEST 9:07 PM CEST
Moon 11:55 AM CEST (10/18) 10:05 PM CEST (10/18)
Length of Visible Light 12h 00m
Length of Day
11h 07m
Waxing Crescent, 12% of the Moon is Illuminated
Oct 18
Waxing Crescent
Oct 22
First Quarter
Oct 29
Full
Nov 7
Last Quarter
Nov 13
New

Hourly Weather History & Observations

Time (CEST) Temp. Heat Index Dew Point Humidity Pressure Visibility Wind Dir Wind Speed Gust Speed Precip Events Conditions
12:00 AM 64.4 °F - 57.2 °F 77% 29.77 in - South 5.8 mph - N/A   Clear
1:00 AM 64.4 °F - 57.2 °F 77% 29.77 in - WSW 4.6 mph - N/A   Clear
2:00 AM 62.6 °F - 55.4 °F 77% 29.77 in - Variable 2.3 mph - N/A   Clear
3:00 AM 60.8 °F - 55.4 °F 82% 29.74 in - Variable 1.2 mph - N/A   Clear
4:00 AM 60.8 °F - 53.6 °F 77% 29.74 in - Calm Calm - N/A   Clear
5:00 AM 59.0 °F - 53.6 °F 82% 29.71 in - Variable 2.3 mph - N/A   Clear
6:00 AM 57.2 °F - 53.6 °F 88% 29.68 in - ESE 5.8 mph - N/A   Clear
7:00 AM 55.4 °F - 51.8 °F 88% 29.68 in - SE 5.8 mph - N/A   Clear
8:00 AM 55.4 °F - 51.8 °F 88% 29.68 in - SE 4.6 mph - N/A   Clear
9:00 AM 57.2 °F - 51.8 °F 82% 29.65 in - SSE 3.5 mph - N/A   Clear
10:00 AM 60.8 °F - 53.6 °F 77% 29.65 in - Variable 1.2 mph - N/A   Clear
11:00 AM 68.0 °F - 55.4 °F 64% 29.65 in - Variable 1.2 mph - N/A   Clear
12:00 PM 75.2 °F - 55.4 °F 50% 29.62 in 6.2 mi SSW 12.7 mph - N/A   Partly Cloudy
1:00 PM 77.0 °F - 60.8 °F 57% 29.59 in 6.2 mi SW 15.0 mph - N/A   Partly Cloudy
1:45 PM 77.0 °F - 60.8 °F 57% 29.59 in 6.2 mi SW 23.0 mph - N/A   Partly Cloudy
2:00 PM 77.0 °F - 60.8 °F 57% 29.56 in 6.2 mi SSW 26.5 mph - N/A   Partly Cloudy
3:00 PM 78.8 °F - 62.6 °F 57% 29.56 in 6.2 mi SSW 26.5 mph - N/A   Partly Cloudy
4:00 PM 80.6 °F 81.5 °F 60.8 °F 51% 29.53 in 6.2 mi SSW 25.3 mph 36.8 mph N/A   Scattered Clouds
5:00 PM 77.0 °F - 60.8 °F 57% 29.53 in 6.2 mi SW 25.3 mph 36.8 mph N/A   Mostly Cloudy
5:20 PM 68.0 °F - 62.6 °F 83% 29.56 in 6.2 mi West 17.3 mph - N/A   Mostly Cloudy
6:00 PM 64.4 °F - 62.6 °F 94% 29.59 in 5.0 mi West 13.8 mph - N/A Rain Light Rain Showers
6:10 PM 64.4 °F - 62.6 °F 94% 29.59 in 5.0 mi West 12.7 mph - N/A   Mostly Cloudy
6:40 PM 60.8 °F - 57.2 °F 88% 29.59 in 5.0 mi NW 15.0 mph - N/A   Mostly Cloudy
7:00 PM 59.0 °F - 55.4 °F 88% 29.62 in 6.2 mi NW 15.0 mph - N/A   Mostly Cloudy
7:10 PM 59.0 °F - 55.4 °F 88% 29.62 in 6.2 mi WNW 12.7 mph - N/A   Mostly Cloudy
8:00 PM 59.0 °F - 55.4 °F 88% 29.65 in 5.0 mi Variable 2.3 mph - N/A   Mostly Cloudy
9:00 PM 59.0 °F - 57.2 °F 94% 29.68 in 5.0 mi WSW 8.1 mph - N/A   Mostly Cloudy
10:00 PM 59.0 °F - 57.2 °F 94% 29.71 in 5.0 mi SW 6.9 mph - N/A   Scattered Clouds
11:00 PM 59.0 °F - 57.2 °F 94% 29.74 in 5.0 mi SW 5.8 mph - N/A   Scattered Clouds